Overview Statistics Trail Chart Weather Telemetry Raw packets
 

This is the latest recevied weather packets stored in our database for station/object I0UVN-10. If no packets are shown the sender has not sent any weather packets the latest 10 day(s).

<< 18 19 20 21 22 23 24 >>
Time Temp. Humidity Pressure Rain* Wind** Luminosity Snow
1788108027 30° C 55% 1016.8 hPa - - - -
1788106826 30.56° C 54% 1016.8 hPa - - - -
1788105619 30.56° C 55% 1016.9 hPa - - - -
1788104419 30.56° C 57% 1016.8 hPa - - - -
1788103218 30.56° C 57% 1016.9 hPa - - - -
1788102017 30.56° C 57% 1016.8 hPa - - - -
1788100843 30.56° C 58% 1016.9 hPa - - - -
1788100811 30.56° C 58% 1016.9 hPa - - - -
1788099642 30.56° C 57% 1016.9 hPa - - - -
1788099611 30.56° C 57% 1016.9 hPa - - - -
1788098442 30.56° C 57% 1016.7 hPa - - - -
1788098410 30.56° C 57% 1016.7 hPa - - - -
1788097209 30.56° C 55% 1016.8 hPa - - - -
1788096045 31.11° C 56% 1016.8 hPa - - - -
1788096009 31.11° C 56% 1016.8 hPa - - - -
1788094843 30.56° C 54% 1017.2 hPa - - - -
1788094809 30.56° C 54% 1017.2 hPa - - - -
1788093641 31.11° C 54% 1017.4 hPa - - - -
1788093608 31.11° C 54% 1017.4 hPa - - - -
1788092580 31.11° C 51% 1017.3 hPa - - - -
1788092440 31.11° C 51% 1017.3 hPa - - - -
1788092406 31.11° C 51% 1017.3 hPa - - - -
1788091284 31.11° C 48% 1017.3 hPa - - - -
1788091238 31.11° C 48% 1017.3 hPa - - - -
1788091206 31.11° C 48% 1017.3 hPa - - - -

* Rain since midnight (hover to see other rain measurements)
** Current wind speed in m/s (hover to see current wind gust speed)